This is the latest recevied weather packets stored in our database for station/object AI5YA-13. If no packets are shown the sender has not sent any weather packets the latest 10 day(s).
| Time | Temp. | Humidity | Pressure | Rain* | Wind** | Luminosity | Snow |
|---|---|---|---|---|---|---|---|
| 1777587923 | 20° C | 46% | 1013.1 hPa | 0 mm | - | 204 W/m² | - |
| 1777587620 | 20° C | 46% | 1013.1 hPa | 0 mm | - | 153 W/m² | - |
| 1777587315 | 20° C | 46% | 1013.4 hPa | 0 mm | - | 173 W/m² | - |
| 1777587010 | 19.44° C | 46% | 1013.5 hPa | 0 mm | - | 161 W/m² | - |
| 1777586706 | 19.44° C | 47% | 1013.4 hPa | 0 mm | - | 125 W/m² | - |
| 1777586402 | 19.44° C | 48% | 1013.4 hPa | 0 mm | - | 159 W/m² | - |
| 1777586101 | 19.44° C | 48% | 1013.5 hPa | 0 mm | - | 115 W/m² | - |
| 1777585800 | 19.44° C | 48% | 1013.6 hPa | 0 mm | - | 108 W/m² | - |
| 1777585500 | 20° C | 48% | 1013.7 hPa | 0 mm | - | 151 W/m² | - |
| 1777585195 | 19.44° C | 48% | 1014 hPa | 0 mm | - | 133 W/m² | - |
| 1777584891 | 19.44° C | 48% | 1014 hPa | 0 mm | - | 134 W/m² | - |
| 1777584589 | 20° C | 47% | 1014.3 hPa | 0 mm | - | 182 W/m² | - |
| 1777584286 | 20° C | 47% | 1014.1 hPa | 0 mm | - | 172 W/m² | - |
| 1777583981 | 20° C | 47% | 1014.2 hPa | 0 mm | - | 245 W/m² | - |
| 1777583676 | 20.56° C | 47% | 1014 hPa | 0 mm | - | 375 W/m² | - |
| 1777583375 | 20° C | 48% | 1014.1 hPa | 0 mm | - | 489 W/m² | - |
| 1777583075 | 20° C | 50% | 1014.4 hPa | 0 mm | - | 384 W/m² | - |
| 1777582772 | 20° C | 51% | 1014.6 hPa | 0 mm | - | 509 W/m² | - |
| 1777582467 | 20° C | 51% | 1014.4 hPa | 0 mm | - | 474 W/m² | - |
| 1777582162 | 20° C | 51% | 1014.3 hPa | 0 mm | - | 627 W/m² | - |
| 1777581860 | 19.44° C | 53% | 1014.3 hPa | 0 mm | - | 548 W/m² | - |
| 1777581555 | 19.44° C | 53% | 1015.1 hPa | 0 mm | - | 696 W/m² | - |
| 1777581250 | 18.89° C | 54% | 1015.2 hPa | 0 mm | - | 682 W/m² | - |
| 1777580945 | 19.44° C | 54% | 1015.2 hPa | 0 mm | - | 738 W/m² | - |
| 1777580640 | 18.33° C | 57% | 1015.3 hPa | 0 mm | - | 729 W/m² | - |
* Rain latest hour (hover to see other rain measurements)
** Current wind speed in m/s (hover to see current wind gust speed)